User: anonymous   Login
Location: Cincinnati Observatory Center
(39.1389°N, 84.4225°W)
Time: 10:53:35
(UTC-05:00)
Language:

JAS-1B - Orbit

View from above orbital plane
View from above orbital plane
View from above satellite
View from above satellite

Ground track
Ground track

The orbit data is extracted from the following two-line orbital elements,

1 20480U 90013C   15058.74214513 -.00000005  00000-0  54759-4 0  9993
2 20480 099.0747 339.1891 0540853 135.1555 284.3088 12.83402107173918
Epoch (UTC): 27 February 2015 17:48:41
Eccentricity: 0.0540853
inclination: 99.0747°
perigee height: 911 km
apogee height: 1744 km
right ascension of ascending node: 339.1891°
argument of perigee: 135.1555°
revolutions per day: 12.83402107
mean anomaly at epoch: 284.3088°
orbit number at epoch: 17391

The dashed part of the orbit path shows where the satellite is in the earth's shadow,  

DLR